Location: Ca�n Batista
(41.4099°N, 1.7752°E)
Time: 14:12:41
(UTC+00:00)

Ariane Rocket - Pass Details

Date: 03 March 2021
Orbit: 759 x 771 km, 98.7° (Epoch: 21 April)

Event Time Altitude Azimuth Distance (km) Brightness Sun altitude
Exits shadow 18:42:03 15° 90° (E) 1,979 4.5 -11.3°
Maximum altitude 18:44:01 19° 62° (ENE) 1,794 4.4 -11.7°
Drops below altitude 10° 18:47:28 10° 20° (NNE) 2,321 5.3 -12.3°
Sets 18:50:24 0° 2° (N) 3,251 6.3 -12.9°
